Regional Weather Roundup
Issued by NWS Sioux Falls, SD

Home | Current Version | Previous Version | Graphics & Text | Print | Product List | Glossary On
Versions: 1 2 3 4 5 6 7 8 9 10 11 12 13 14 15 16 17 18 19 20 21 22 23 24 25 26 27 28 29 30 31 32 33 34 35 36 37 38 39 40 41 42 43 44 45 46 47 48 49 50
000
ASUS43 KFSD 221610
RWRFSD

WEATHER ROUNDUP FOR SE SOUTH DAKOTA/SW MINNESOTA/NW IOWA
NATIONAL WEATHER SERVICE SIOUX FALLS SD
1100 AM CDT TUE AUG 22 2017

NOTE: "FAIR" INDICATES FEW OR NO CLOUDS BELOW 12,000 FEET WITH NO
SIGNIFICANT WEATHER AND OR OBSTRUCTIONS TO VISIBILITY.


SDZ038>040-050-052>070-221700-
SOUTHEAST SOUTH DAKOTA

CITY           SKY/WX    TMP DP  RH WIND       PRES   REMARKS
BROOKINGS      SUNNY     67  49  52 NW13      30.18S
CHAMBERLAIN    SUNNY     68  55  63 SW6       30.24S
HURON          SUNNY     67  52  58 NW6       30.20S
MADISON        FAIR      66  48  52 NW10      30.20R
MITCHELL       SUNNY     70  51  51 W7        30.21S
SIOUX FALLS    MOSUNNY   71  51  49 NW12      30.18S
WINNER         FAIR      71  52  50 CALM      30.25S
YANKTON        SUNNY     67  55  65 W8        30.22R
$$

MNZ071-072-080-081-089-090-097-098-221700-
SOUTHWEST MINNESOTA

CITY           SKY/WX    TMP DP  RH WIND       PRES   REMARKS
FAIRMONT       SUNNY     66  53  63 NW12G18   30.13R
JACKSON        SUNNY     64  50  59 NW6G16    30.15R
LUVERNE        SUNNY     66  50  55 NW10      30.18R
MARSHALL       SUNNY     67  52  58 NW10      30.15R
MONTEVIDEO     SUNNY     70  66  88 NW12      30.13R
PIPESTONE      SUNNY     66  50  55 N14       30.18R
REDWOOD FALLS  SUNNY     67  53  61 W12       30.12R
TRACY          SUNNY     67  56  67 NW9       30.15R
WINDOM         SUNNY     66  52  59 NW10G16   30.15R
WORTHINGTON    SUNNY     66  49  54 NW13      30.17R
$$

IAZ001>003-012>014-020>022-031-032-NEZ013-014-SDZ071-221700-
NORTHWEST IOWA

CITY           SKY/WX    TMP DP  RH WIND       PRES   REMARKS
CHEROKEE       SUNNY     67  53  60 N10       30.17R
DENISON        SUNNY     68  52  56 N16       30.17S
ESTHERVILLE    SUNNY     66  53  63 NW13G20   30.13R
ORANGE CITY    SUNNY     70  55  60 N9        30.19R
SHELDON        SUNNY     68  54  60 NW9       30.16S
SIOUX CITY     SUNNY     70  57  63 N10       30.18R
SPENCER        SUNNY     69  49  48 NW16      30.16R
STORM LAKE     SUNNY     66  52  59 N12       30.16S
$$

ABBREVIATIONS USED IN REMARKS
   TC - TEMPERATURE IN CELSIUS
  WCI - WIND CHILL INDEX
   HX - HEAT INDEX
  VSB - VISIBILITY




USA.gov is the U.S. government's official web portal to all federal, state and local government web resources and services.